TimeHST,TemperatureF,Dew PointF,Humidity,Sea Level PressureIn,VisibilityMPH,Wind Direction,Wind SpeedMPH,Gust SpeedMPH,PrecipitationIn,Events,Conditions,WindDirDegrees,DateUTC
12:54 AM,73.0,66.9,81,30.04,10.0,ENE,10.4,-,N/A,,Clear,60,2013-06-15 10:54:00
1:54 AM,73.9,64.9,73,30.02,10.0,NE,11.5,-,N/A,,Clear,40,2013-06-15 11:54:00
2:54 AM,73.0,63.0,71,30.01,10.0,ENE,13.8,20.7,N/A,,Clear,60,2013-06-15 12:54:00
3:54 AM,72.0,62.1,71,30.01,10.0,ENE,8.1,-,N/A,,Clear,70,2013-06-15 13:54:00
4:54 AM,73.0,62.1,68,30.02,10.0,NE,8.1,-,N/A,,Clear,40,2013-06-15 14:54:00
5:54 AM,72.0,62.1,71,30.03,10.0,East,5.8,-,N/A,,Partly Cloudy,90,2013-06-15 15:54:00
6:54 AM,75.0,69.1,82,30.04,10.0,NE,18.4,-,N/A,,Scattered Clouds,50,2013-06-15 16:54:00
7:54 AM,78.1,66.0,66,30.05,10.0,NE,18.4,26.5,N/A,,Scattered Clouds,50,2013-06-15 17:54:00
8:54 AM,82.0,70.0,67,30.05,10.0,NE,21.9,-,N/A,,Partly Cloudy,40,2013-06-15 18:54:00
9:54 AM,84.0,70.0,63,30.04,10.0,NE,19.6,29.9,0.00,,Partly Cloudy,40,2013-06-15 19:54:00
10:54 AM,84.0,69.1,61,30.03,10.0,NE,24.2,31.1,N/A,,Scattered Clouds,40,2013-06-15 20:54:00
11:54 AM,84.9,70.0,61,30.01,10.0,NE,26.5,33.4,N/A,,Scattered Clouds,40,2013-06-15 21:54:00
12:54 PM,84.9,70.0,61,29.99,10.0,NE,26.5,32.2,0.01,,Scattered Clouds,40,2013-06-15 22:54:00
1:54 PM,86.0,68.0,55,29.97,10.0,NE,26.5,33.4,N/A,,Scattered Clouds,40,2013-06-15 23:54:00
2:54 PM,84.9,66.0,53,29.95,10.0,NE,24.2,33.4,N/A,,Partly Cloudy,50,2013-06-16 00:54:00
3:54 PM,84.0,66.9,56,29.94,10.0,NE,23.0,34.5,N/A,,Scattered Clouds,50,2013-06-16 01:54:00
4:54 PM,81.0,68.0,65,29.94,10.0,ENE,20.7,28.8,0.00,,Partly Cloudy,60,2013-06-16 02:54:00
5:54 PM,79.0,69.1,72,29.96,10.0,ENE,17.3,26.5,N/A,,Scattered Clouds,60,2013-06-16 03:54:00
6:54 PM,77.0,68.0,74,29.97,10.0,ENE,11.5,21.9,N/A,,Partly Cloudy,60,2013-06-16 04:54:00
7:54 PM,75.9,69.1,79,29.99,10.0,NE,17.3,-,N/A,,Clear,50,2013-06-16 05:54:00
8:54 PM,73.9,69.1,85,30.01,10.0,NE,12.7,-,N/A,,Partly Cloudy,50,2013-06-16 06:54:00
9:54 PM,73.9,66.0,76,30.02,10.0,NE,16.1,20.7,N/A,,Partly Cloudy,50,2013-06-16 07:54:00
10:54 PM,73.0,66.9,81,30.01,10.0,ENE,9.2,-,N/A,,Partly Cloudy,60,2013-06-16 08:54:00
11:54 PM,73.0,69.1,87,30.01,10.0,ENE,10.4,-,N/A,,Mostly Cloudy,60,2013-06-16 09:54:00